Location: Newark
(46.7636°N, 1.8358°W)
Time: 02:32:28
(UTC+00:00)

Vanguard 2 Rocket - Pass Details

Date: 16 October 2019
Orbit: 554 x 3326 km, 32.9° (Epoch: 13 November)

Event Time Altitude Azimuth Distance (km) Brightness Sun altitude
Rises 16:36:33 0° 275° (W) 6,822 12.7 6.2°
Reaches altitude 10° 16:43:18 10° 262° (W) 5,343 13.1 5.1°
Maximum altitude 16:52:17 19° 225° (SW) 3,820 11.2 3.6°
Drops below altitude 10° 16:58:59 10° 184° (S) 3,800 10.4 2.5°
Sets 17:02:41 0° 167° (SSE) 4,345 10.4 1.9°
